Weather in Nizhneye Pronge

Russia / Khabarovsk Krai     52°51′21″N   141°12′05″E
temp.,
°C
wind,
m/s
gust,
m/s
humid.,
%
clouds,
%
prec.,
mm/h
press.,
hPa
HPBL,
m
27 february, sat
sat2701:00−20wnw229470 0.0 102721
04:00−22wnw129044 0.0 102820
07:00−22wsw11870 0.0 102820
10:00−17se22860 0.0 102877
13:00−13se33830 0.0 1027205
16:00−14ese22950 0.0 102499
19:00−17s119853 0.0 102420
22:00−17ssw119672 0.0 102220
28 february, sun
sun2801:00−15s3491100 0.0 101998
04:00−14s4695100 0.3 1014247
07:00−13ssw2396100 1.2 1011134
10:00−10nw2390100 1.4 1010258
13:00−9nw577884 0.0 1010855
16:00−10wnw487988 0.1 1010653
19:00−16nw458860 0.0 101369
22:00−20wnw458743 0.0 101476
1 march, mon
mon101:00−22wnw348748 0.0 101553
04:00−21w339073 0.0 101758
07:00−19w4786100 0.0 1018229
10:00−17wnw61275100 0.0 1020690
13:00−16nw61071100 0.0 10211054
16:00−17nw5107497 0.0 1022904
19:00−22wnw228321 0.0 102320
22:00−23w228818 0.0 102420
2 march, tue
tue201:00−24w22880 0.0 102420
04:00−25wsw23831 0.0 102520
07:00−26sw237920 0.0 102620
10:00−21sw367810 0.0 1026332
13:00−18w456455 0.0 10261305
16:00−18w247078 0.0 1026820
19:00−22wsw237895 0.0 102721
22:00−25sw338659 0.0 102821
3 march, wed
wed301:00−25wsw33810 0.0 102622
04:00−26wsw22780 0.0 102620
07:00−26sw23780 0.0 102520
10:00−21wsw12770 0.0 102499
13:00−17nne14630 0.0 1022660
16:00−16e13740 0.0 1019476
19:00−20sw23850 0.0 101821
22:00−21ssw339022 0.0 101635